Bismarck, ND

2:31 PM CDT on May 25, 2018 (GMT -0500)
Bismarck Municipal

Weather History for KBIS - May, 2013

Change the Weather History Date:

Friday, May 3, 2013

  Actual Average Record
Temperature  
Mean Temperature 40 °F 51 °F  
Max Temperature 56 °F 65 °F 92 °F (1952)
Min Temperature 24 °F 38 °F 13 °F (1907)
Degree Days  
Heating Degree Days 25 14  
Month to date heating degree days 77 43  
Since 1 July heating degree days 8600 8198  
Cooling Degree Days 0 0  
Month to date cooling degree days 0 0  
Year to date cooling degree days 0 1  
Moisture  
Dew Point 21 °F    
Average Humidity 53    
Maximum Humidity 88    
Minimum Humidity 18    
Precipitation  
Precipitation 0.00 in 0.06 in 1.25 in (1987)
Month to date precipitation 0.00 0.19  
Year to date precipitation 3.23 3.26  
Snow  
Snow 0.00 in 0.00 in 6.50 in (1991)
Month to date snowfall 0.0 0.1  
Since 1 July snowfall 57.3 50.9  
Snow Depth 0.00 in    
Sea Level Pressure  
Sea Level Pressure 30.40 in    
Wind  
Wind Speed 7 mph (East)    
Max Wind Speed 15 mph    
Max Gust Speed 20 mph    
Visibility 10 miles    
Events      
T = Trace of Precipitation, MM = Missing Value Source: NWS Daily Summary

Daily Weather History Graph

Daily Weather History Graph

Search for Another Location

Airport or City:

Astronomy

May. 03, 2013 Rise Set
Actual Time 6:24 AM CDT 8:56 PM CDT
Civil Twilight 5:50 AM CDT 9:30 PM CDT
Nautical Twilight 5:07 AM CDT 10:13 PM CDT
Astronomical Twilight 4:18 AM CDT 11:02 PM CDT
Moon 3:13 AM CDT (5/3) 2:30 PM CDT (5/3)
Length of Visible Light 15h 39m
Length of Day
14h 31m
Last Quarter, 37% of the Moon is Illuminated
May 3
Last Quarter
May 9
New
May 17
First Quarter
May 24
Full
May 31
Last Quarter

Hourly Weather History & Observations

Time (CDT) Temp. Windchill Dew Point Humidity Pressure Visibility Wind Dir Wind Speed Gust Speed Precip Events Conditions
12:52 AM 30.9 °F 25.2 °F 21.9 °F 69% 30.52 in 10.0 mi East 5.8 mph - N/A   Clear
1:52 AM 28.9 °F 23.9 °F 21.9 °F 75% 30.52 in 10.0 mi East 4.6 mph - N/A   Clear
2:52 AM 28.0 °F 20.8 °F 21.9 °F 78% 30.51 in 10.0 mi East 6.9 mph - N/A   Clear
3:52 AM 27.0 °F 19.5 °F 21.9 °F 81% 30.49 in 10.0 mi ENE 6.9 mph - N/A   Clear
4:52 AM 27.0 °F 21.6 °F 21.9 °F 81% 30.49 in 10.0 mi East 4.6 mph - N/A   Clear
5:52 AM 26.1 °F 18.4 °F 21.9 °F 84% 30.48 in 10.0 mi ENE 6.9 mph - N/A   Clear
6:52 AM 25.0 °F 19.3 °F 21.9 °F 88% 30.48 in 10.0 mi ENE 4.6 mph - N/A   Clear
7:52 AM 30.0 °F 22.4 °F 26.1 °F 85% 30.46 in 10.0 mi SE 8.1 mph - N/A   Clear
8:52 AM 33.8 °F 27.0 °F 26.6 °F 75% 30.41 in 10.0 mi SE 8.1 mph - N/A   Clear
9:52 AM 37.9 °F 32.1 °F 28.0 °F 68% 30.45 in 10.0 mi SSE 8.1 mph - N/A   Clear
10:52 AM 42.8 °F 37.5 °F 28.4 °F 57% 30.38 in 10.0 mi SSE 9.2 mph - N/A   Clear
11:52 AM 46.9 °F - 27.0 °F 46% 30.41 in 10.0 mi SE 8.1 mph - N/A   Clear
12:52 PM 50.0 °F - 25.0 °F 38% 30.38 in 10.0 mi Variable 5.8 mph - N/A   Clear
1:52 PM 51.1 °F - 21.9 °F 32% 30.35 in 10.0 mi Calm Calm - N/A   Clear
2:52 PM 53.1 °F - 19.0 °F 26% 30.33 in 10.0 mi East 6.9 mph - N/A   Clear
3:52 PM 55.0 °F - 17.1 °F 23% 30.32 in 10.0 mi ESE 9.2 mph - N/A   Clear
4:52 PM 55.0 °F - 16.0 °F 22% 30.29 in 10.0 mi East 11.5 mph - N/A   Clear
5:52 PM 55.0 °F - 12.0 °F 18% 30.28 in 10.0 mi ENE 9.2 mph - N/A   Clear
6:52 PM 54.0 °F - 12.0 °F 19% 30.29 in 10.0 mi ENE 11.5 mph - N/A   Clear
7:52 PM 52.0 °F - 16.0 °F 24% 30.29 in 10.0 mi East 10.4 mph - N/A   Clear
8:52 PM 45.0 °F 40.6 °F 19.9 °F 37% 30.31 in 10.0 mi East 8.1 mph - N/A   Clear
9:52 PM 39.9 °F 34.5 °F 21.9 °F 49% 30.33 in 10.0 mi East 8.1 mph - N/A   Clear
10:52 PM 36.0 °F 30.3 °F 23.0 °F 59% 30.33 in 10.0 mi ENE 6.9 mph - N/A   Clear
11:52 PM 33.1 °F 27.7 °F 24.1 °F 70% 30.33 in 10.0 mi ENE 5.8 mph - N/A   Clear